sat.trackr.live / text

‹ back to catalog

KORSAT-7

NORAD 58463 · 2023-185B

PAYLOAD ACTIVE UNKNOWN

§ Identity

Operator
Country
SKOR
Launch date
2023-12-01
Launch site
AFWTR
Launch vehicle
Mass (kg)
RCS (m²)

External: N2YO · Heavens-Above · Gunter

§ Orbital elements

Epoch: 2026-09-21T21:59:33.336384Z

Period
95.95 min
Inclination
97.6369°
Eccentricity
0.0027753
Mean motion
15.00778293 rev/d
Perigee alt
545.2 km
Apogee alt
583.8 km
Semi-major
6,942.6 km
B*
8.5108e-5
RAAN
327.5713°
Arg perigee
0.2014°
Mean anomaly
359.9216°
Rev number
15,379

§ Raw data

KORSAT-71 58463U 23185B   26264.91635806  .00001028  00000+0  85108-4 0  99992 58463  97.6369 327.5713 0027753   0.2014 359.9216 15.00778293153799

JSON: /api/v1/satellites/58463 · /tle

For live sub-satellite position, see the globe view (requires WebGL).

§ Visibility from observer

Set your observer location to see the next 7 days of passes ≥ 10°. The values pass through the URL so the page stays shareable.

No JS? Fill the form by hand. The geolocation button needs JavaScript.